(°C)
(°C)
DKD
DKD
DKD
DKD
DKD
DKD
DKD
(km/saat)
12-19
13-19
13-21
14-23
15-25
16-26
17-26
(mm)
3
0.6
0.5
0
0
0
0
(%)
98
97
89
69
63
49
49

Güneşin açısı

/ -24.5°
sun-icon
UV 1
06:00
18:34
Hilal (149°)
18:10
02:11

51.82°K 39.23°D (UUOO) için METAR

Zaman Koşullar Sıcaklık/
Çiy noktası
Rüzgar Görünürlük Hava Bulutlar Basınç Değiştir Ham
IFR 8°C / 7°C 60º 8kt >10km Light Showers Rain 3.00mm precipitation Vertical Visibility of 0ft. 1018 No Significant change. Runway 12: Wet or puddles, 51-100% contamination with 1mm, friction coefficient 0.60. UUOO 180000Z 06004MPS 9999 -SHRA BKN008CB 08/07 Q1018 R12/290160 NOSIG RMK QFE749
VFR 8°C / 7°C 60º 6kt >10km Light Showers Rain 3.00mm precipitation Vertical Visibility of 0ft. 1018 No Significant change. Runway 12: Wet or puddles, 51-100% contamination with 1mm, friction coefficient 0.60. UUOO 172330Z 06003MPS 9999 -SHRA BKN037CB 08/07 Q1018 R12/290160 NOSIG RMK QFE749
VFR 8°C / 8°C 60º 8kt >10km Light Showers Rain 3.00mm precipitation Vertical Visibility of 0ft. 1017 No Significant change. Runway 12: Wet or puddles, 51-100% contamination with 1mm, friction coefficient 0.60. UUOO 172300Z 06004MPS 9999 -SHRA BKN062CB 08/08 Q1017 R12/290160 NOSIG RMK QFE749
VFR 9°C / 7°C 70º 6kt >10km Light Showers Rain 3.00mm precipitation Vertical Visibility of 0ft. 1017 No Significant change. Runway 12: Wet or puddles, 51-100% contamination with 1mm, friction coefficient 0.60. UUOO 172230Z 07003MPS 9999 -SHRA BKN066CB 09/07 Q1017 R12/290160 NOSIG RMK QFE749
9°C / 7°C 70º 8kt >10km Light Showers Rain 3.00mm precipitation Vertical Visibility of 0ft. 1017 No Significant change. Runway 12: Wet or puddles, 51-100% contamination with 1mm, friction coefficient 0.60. UUOO 172200Z 07004MPS 9999 -SHRA BKN///CB 09/07 Q1017 R12/290160 NOSIG RMK QFE749
9°C / 7°C 60º 6kt >10km Light Showers Rain 3.00mm precipitation Vertical Visibility of 0ft. 1018 No Significant change. Runway 12: Wet or puddles, 51-100% contamination with 1mm, friction coefficient 0.60. UUOO 172130Z 06003MPS 9999 -SHRA BKN///CB 09/07 Q1018 R12/290160 NOSIG RMK QFE749
VFR 9°C / 7°C 60º 4kt >10km Light Showers Rain 3.00mm precipitation Vertical Visibility of 0ft. 1018 No Significant change. Runway 12: Wet or puddles, 51-100% contamination with 1mm, friction coefficient 0.60. UUOO 172100Z 06002MPS 9999 -SHRA BKN056CB 09/07 Q1018 R12/290160 NOSIG RMK QFE749
VFR 9°C / 7°C 70º 6kt >10km Light Showers Rain 3.00mm precipitation Vertical Visibility of 0ft. 1017 No Significant change. Runway 12: Wet or puddles, 51-100% contamination with 1mm, friction coefficient 0.60. UUOO 172030Z 07003MPS 9999 -SHRA BKN066CB 09/07 Q1017 R12/290160 NOSIG RMK QFE749
VFR 9°C / 7°C 80º 6kt >10km Light Showers Rain 3.00mm precipitation Vertical Visibility of 0ft. 1017 No Significant change. Runway 12: Wet or puddles, 51-100% contamination with 1mm, friction coefficient 0.60. UUOO 172000Z 08003MPS 9999 -SHRA BKN073CB 09/07 Q1017 R12/290160 NOSIG RMK QFE749
9°C / 7°C 70º 6kt >10km Light Showers Rain 3.00mm precipitation Vertical Visibility of 0ft. 1017 No Significant change. Runway 12: Wet or puddles, 51-100% contamination with 1mm, friction coefficient 0.60. UUOO 171930Z 07003MPS 9999 -SHRA BKN///CB 09/07 Q1017 R12/290160 NOSIG RMK QFE749
10°C / 7°C 80º 6kt >10km Light Showers Rain 3.00mm precipitation Vertical Visibility of 0ft. 1017 No Significant change. Runway 12: Wet or puddles, 51-100% contamination with 1mm, friction coefficient 0.60. UUOO 171900Z 08003MPS 9999 -SHRA BKN///CB 10/07 Q1017 R12/290160 NOSIG RMK QFE749
10°C / 7°C 70º 6kt >10km Light Showers Rain 3.00mm precipitation Vertical Visibility of 0ft. 1017 No Significant change. Runway 12: Wet or puddles, 51-100% contamination with 1mm, friction coefficient 0.60. UUOO 171830Z 07003MPS 9999 -SHRA BKN///CB 10/07 Q1017 R12/290160 NOSIG RMK QFE749
VFR 10°C / 7°C 70º 4kt >10km Light Showers Rain 3.00mm precipitation Vertical Visibility of 0ft. 1017 No Significant change. Runway 30: Wet or puddles, 51-100% contamination with 1mm, friction coefficient 0.60. UUOO 171800Z 07002MPS 9999 -SHRA BKN054CB 10/07 Q1017 R30/290160 NOSIG RMK QFE749
10°C / 7°C 50º 4kt >10km Light Showers Rain 3.00mm precipitation Vertical Visibility of 0ft. 1017 No Significant change. Runway 30: Wet or puddles, 51-100% contamination with 1mm, friction coefficient 0.60. UUOO 171730Z 05002MPS 9999 -SHRA BKN///CB 10/07 Q1017 R30/290160 NOSIG RMK QFE749
VFR 10°C / 7°C 50º 6kt >10km Light Showers Rain 3.00mm precipitation Vertical Visibility of 0ft. 1017 No Significant change. Runway 30: Wet or puddles, 51-100% contamination with 1mm, friction coefficient 0.60. UUOO 171700Z 05003MPS 9999 -SHRA BKN065CB 10/07 Q1017 R30/290160 NOSIG RMK QFE749
VFR 11°C / 7°C 30º 6kt >10km Light Showers Rain 3.00mm precipitation Vertical Visibility of 0ft. 1016 No Significant change. Runway 30: Wet or puddles, 51-100% contamination with 1mm, friction coefficient 0.60. UUOO 171630Z 03003MPS 9999 -SHRA BKN065CB 11/07 Q1016 R30/290160 NOSIG RMK QFE749
12°C / 8°C variable 2kt >10km Light Showers Rain 3.00mm precipitation Vertical Visibility of 0ft. 1016 No Significant change. Runway 30: Wet or puddles, 51-100% contamination with 1mm, friction coefficient 0.60. UUOO 171600Z VRB01MPS 9999 -SHRA BKN///CB 12/08 Q1016 R30/290160 NOSIG RMK QFE748
12°C / 7°C 330º 6kt >10km Light Showers Rain 3.00mm precipitation Vertical Visibility of 0ft. 1016 No Significant change. Runway 30: Wet or puddles, 51-100% contamination with 1mm, friction coefficient 0.60. UUOO 171530Z 33003MPS 9999 -SHRA BKN///CB 12/07 Q1016 R30/290160 NOSIG RMK QFE748
14°C / 4°C 240º variable 200º to 280º 4kt >10km Light Showers Rain 3.00mm precipitation Vertical Visibility of 0ft. 1016 No Significant change. Runway 12: Clear and dry, 1-10% contamination with <1mm, friction coefficient 0.70. UUOO 171500Z 24002MPS 200V280 9999 -SHRA BKN///CB 14/04 Q1016 R12/010070 NOSIG RMK QFE748
16°C / 3°C 110º 2kt >10km - 1015 No Significant change. Runway 12: Clear and dry, 1-10% contamination with <1mm, friction coefficient 0.70. UUOO 171430Z 11001MPS 9999 BKN///CB 16/03 Q1015 R12/010070 NOSIG RMK QFE748
16°C / 2°C 100º 4kt >10km Light Showers Rain 3.00mm precipitation Vertical Visibility of 0ft. 1015 No Significant change. Runway 12: Clear and dry, 1-10% contamination with <1mm, friction coefficient 0.70. UUOO 171400Z 10002MPS 9999 -SHRA BKN///CB 16/02 Q1015 R12/010070 NOSIG RMK QFE748
VFR 16°C / 1°C 60º 4kt >10km - Clouds and Visibility OK 1015 No Significant change. Runway 12: Clear and dry, 1-10% contamination with <1mm, friction coefficient 0.70. UUOO 171330Z 06002MPS CAVOK 16/01 Q1015 R12/010070 NOSIG RMK QFE748
VFR 17°C / 1°C 70º variable 030º to 100º 4kt >10km - Clouds and Visibility OK 1016 No Significant change. Runway 12: Clear and dry, 1-10% contamination with <1mm, friction coefficient 0.70. UUOO 171300Z 07002MPS 030V100 CAVOK 17/01 Q1016 R12/010070 NOSIG RMK QFE748
VFR 17°C / 1°C 160º variable 120º to 210º 4kt >10km - Clouds and Visibility OK 1016 No Significant change. Runway 30: Clear and dry, 1-10% contamination with <1mm, friction coefficient 0.70. UUOO 171230Z 16002MPS 120V210 CAVOK 17/01 Q1016 R30/010070 NOSIG RMK QFE748

IFR

8°C / 7°C

[Daha fazla]
Rüzgar 60º 8kt
Görünürlük >10km
Hava Light Showers Rain 3.00mm precipitation
Bulutlar Vertical Visibility of 0ft.
Basınç 1018
Değiştir No Significant change. Runway 12: Wet or puddles, 51-100% contamination with 1mm, friction coefficient 0.60.
Ham UUOO 180000Z 06004MPS 9999 -SHRA BKN008CB 08/07 Q1018 R12/290160 NOSIG RMK QFE749

VFR

8°C / 7°C

[Daha fazla]
Rüzgar 60º 6kt
Görünürlük >10km
Hava Light Showers Rain 3.00mm precipitation
Bulutlar Vertical Visibility of 0ft.
Basınç 1018
Değiştir No Significant change. Runway 12: Wet or puddles, 51-100% contamination with 1mm, friction coefficient 0.60.
Ham UUOO 172330Z 06003MPS 9999 -SHRA BKN037CB 08/07 Q1018 R12/290160 NOSIG RMK QFE749

VFR

8°C / 8°C

[Daha fazla]
Rüzgar 60º 8kt
Görünürlük >10km
Hava Light Showers Rain 3.00mm precipitation
Bulutlar Vertical Visibility of 0ft.
Basınç 1017
Değiştir No Significant change. Runway 12: Wet or puddles, 51-100% contamination with 1mm, friction coefficient 0.60.
Ham UUOO 172300Z 06004MPS 9999 -SHRA BKN062CB 08/08 Q1017 R12/290160 NOSIG RMK QFE749

VFR

9°C / 7°C

[Daha fazla]
Rüzgar 70º 6kt
Görünürlük >10km
Hava Light Showers Rain 3.00mm precipitation
Bulutlar Vertical Visibility of 0ft.
Basınç 1017
Değiştir No Significant change. Runway 12: Wet or puddles, 51-100% contamination with 1mm, friction coefficient 0.60.
Ham UUOO 172230Z 07003MPS 9999 -SHRA BKN066CB 09/07 Q1017 R12/290160 NOSIG RMK QFE749

9°C / 7°C

[Daha fazla]
Rüzgar 70º 8kt
Görünürlük >10km
Hava Light Showers Rain 3.00mm precipitation
Bulutlar Vertical Visibility of 0ft.
Basınç 1017
Değiştir No Significant change. Runway 12: Wet or puddles, 51-100% contamination with 1mm, friction coefficient 0.60.
Ham UUOO 172200Z 07004MPS 9999 -SHRA BKN///CB 09/07 Q1017 R12/290160 NOSIG RMK QFE749

9°C / 7°C

[Daha fazla]
Rüzgar 60º 6kt
Görünürlük >10km
Hava Light Showers Rain 3.00mm precipitation
Bulutlar Vertical Visibility of 0ft.
Basınç 1018
Değiştir No Significant change. Runway 12: Wet or puddles, 51-100% contamination with 1mm, friction coefficient 0.60.
Ham UUOO 172130Z 06003MPS 9999 -SHRA BKN///CB 09/07 Q1018 R12/290160 NOSIG RMK QFE749

VFR

9°C / 7°C

[Daha fazla]
Rüzgar 60º 4kt
Görünürlük >10km
Hava Light Showers Rain 3.00mm precipitation
Bulutlar Vertical Visibility of 0ft.
Basınç 1018
Değiştir No Significant change. Runway 12: Wet or puddles, 51-100% contamination with 1mm, friction coefficient 0.60.
Ham UUOO 172100Z 06002MPS 9999 -SHRA BKN056CB 09/07 Q1018 R12/290160 NOSIG RMK QFE749

VFR

9°C / 7°C

[Daha fazla]
Rüzgar 70º 6kt
Görünürlük >10km
Hava Light Showers Rain 3.00mm precipitation
Bulutlar Vertical Visibility of 0ft.
Basınç 1017
Değiştir No Significant change. Runway 12: Wet or puddles, 51-100% contamination with 1mm, friction coefficient 0.60.
Ham UUOO 172030Z 07003MPS 9999 -SHRA BKN066CB 09/07 Q1017 R12/290160 NOSIG RMK QFE749

VFR

9°C / 7°C

[Daha fazla]
Rüzgar 80º 6kt
Görünürlük >10km
Hava Light Showers Rain 3.00mm precipitation
Bulutlar Vertical Visibility of 0ft.
Basınç 1017
Değiştir No Significant change. Runway 12: Wet or puddles, 51-100% contamination with 1mm, friction coefficient 0.60.
Ham UUOO 172000Z 08003MPS 9999 -SHRA BKN073CB 09/07 Q1017 R12/290160 NOSIG RMK QFE749

9°C / 7°C

[Daha fazla]
Rüzgar 70º 6kt
Görünürlük >10km
Hava Light Showers Rain 3.00mm precipitation
Bulutlar Vertical Visibility of 0ft.
Basınç 1017
Değiştir No Significant change. Runway 12: Wet or puddles, 51-100% contamination with 1mm, friction coefficient 0.60.
Ham UUOO 171930Z 07003MPS 9999 -SHRA BKN///CB 09/07 Q1017 R12/290160 NOSIG RMK QFE749

10°C / 7°C

[Daha fazla]
Rüzgar 80º 6kt
Görünürlük >10km
Hava Light Showers Rain 3.00mm precipitation
Bulutlar Vertical Visibility of 0ft.
Basınç 1017
Değiştir No Significant change. Runway 12: Wet or puddles, 51-100% contamination with 1mm, friction coefficient 0.60.
Ham UUOO 171900Z 08003MPS 9999 -SHRA BKN///CB 10/07 Q1017 R12/290160 NOSIG RMK QFE749

10°C / 7°C

[Daha fazla]
Rüzgar 70º 6kt
Görünürlük >10km
Hava Light Showers Rain 3.00mm precipitation
Bulutlar Vertical Visibility of 0ft.
Basınç 1017
Değiştir No Significant change. Runway 12: Wet or puddles, 51-100% contamination with 1mm, friction coefficient 0.60.
Ham UUOO 171830Z 07003MPS 9999 -SHRA BKN///CB 10/07 Q1017 R12/290160 NOSIG RMK QFE749

VFR

10°C / 7°C

[Daha fazla]
Rüzgar 70º 4kt
Görünürlük >10km
Hava Light Showers Rain 3.00mm precipitation
Bulutlar Vertical Visibility of 0ft.
Basınç 1017
Değiştir No Significant change. Runway 30: Wet or puddles, 51-100% contamination with 1mm, friction coefficient 0.60.
Ham UUOO 171800Z 07002MPS 9999 -SHRA BKN054CB 10/07 Q1017 R30/290160 NOSIG RMK QFE749

10°C / 7°C

[Daha fazla]
Rüzgar 50º 4kt
Görünürlük >10km
Hava Light Showers Rain 3.00mm precipitation
Bulutlar Vertical Visibility of 0ft.
Basınç 1017
Değiştir No Significant change. Runway 30: Wet or puddles, 51-100% contamination with 1mm, friction coefficient 0.60.
Ham UUOO 171730Z 05002MPS 9999 -SHRA BKN///CB 10/07 Q1017 R30/290160 NOSIG RMK QFE749

VFR

10°C / 7°C

[Daha fazla]
Rüzgar 50º 6kt
Görünürlük >10km
Hava Light Showers Rain 3.00mm precipitation
Bulutlar Vertical Visibility of 0ft.
Basınç 1017
Değiştir No Significant change. Runway 30: Wet or puddles, 51-100% contamination with 1mm, friction coefficient 0.60.
Ham UUOO 171700Z 05003MPS 9999 -SHRA BKN065CB 10/07 Q1017 R30/290160 NOSIG RMK QFE749

VFR

11°C / 7°C

[Daha fazla]
Rüzgar 30º 6kt
Görünürlük >10km
Hava Light Showers Rain 3.00mm precipitation
Bulutlar Vertical Visibility of 0ft.
Basınç 1016
Değiştir No Significant change. Runway 30: Wet or puddles, 51-100% contamination with 1mm, friction coefficient 0.60.
Ham UUOO 171630Z 03003MPS 9999 -SHRA BKN065CB 11/07 Q1016 R30/290160 NOSIG RMK QFE749

12°C / 8°C

[Daha fazla]
Rüzgar variable 2kt
Görünürlük >10km
Hava Light Showers Rain 3.00mm precipitation
Bulutlar Vertical Visibility of 0ft.
Basınç 1016
Değiştir No Significant change. Runway 30: Wet or puddles, 51-100% contamination with 1mm, friction coefficient 0.60.
Ham UUOO 171600Z VRB01MPS 9999 -SHRA BKN///CB 12/08 Q1016 R30/290160 NOSIG RMK QFE748

12°C / 7°C

[Daha fazla]
Rüzgar 330º 6kt
Görünürlük >10km
Hava Light Showers Rain 3.00mm precipitation
Bulutlar Vertical Visibility of 0ft.
Basınç 1016
Değiştir No Significant change. Runway 30: Wet or puddles, 51-100% contamination with 1mm, friction coefficient 0.60.
Ham UUOO 171530Z 33003MPS 9999 -SHRA BKN///CB 12/07 Q1016 R30/290160 NOSIG RMK QFE748

14°C / 4°C

[Daha fazla]
Rüzgar 240º variable 200º to 280º 4kt
Görünürlük >10km
Hava Light Showers Rain 3.00mm precipitation
Bulutlar Vertical Visibility of 0ft.
Basınç 1016
Değiştir No Significant change. Runway 12: Clear and dry, 1-10% contamination with <1mm, friction coefficient 0.70.
Ham UUOO 171500Z 24002MPS 200V280 9999 -SHRA BKN///CB 14/04 Q1016 R12/010070 NOSIG RMK QFE748

16°C / 3°C

[Daha fazla]
Rüzgar 110º 2kt
Görünürlük >10km
Hava -
Bulutlar
Basınç 1015
Değiştir No Significant change. Runway 12: Clear and dry, 1-10% contamination with <1mm, friction coefficient 0.70.
Ham UUOO 171430Z 11001MPS 9999 BKN///CB 16/03 Q1015 R12/010070 NOSIG RMK QFE748

16°C / 2°C

[Daha fazla]
Rüzgar 100º 4kt
Görünürlük >10km
Hava Light Showers Rain 3.00mm precipitation
Bulutlar Vertical Visibility of 0ft.
Basınç 1015
Değiştir No Significant change. Runway 12: Clear and dry, 1-10% contamination with <1mm, friction coefficient 0.70.
Ham UUOO 171400Z 10002MPS 9999 -SHRA BKN///CB 16/02 Q1015 R12/010070 NOSIG RMK QFE748

VFR

16°C / 1°C

[Daha fazla]
Rüzgar 60º 4kt
Görünürlük >10km
Hava -
Bulutlar Clouds and Visibility OK
Basınç 1015
Değiştir No Significant change. Runway 12: Clear and dry, 1-10% contamination with <1mm, friction coefficient 0.70.
Ham UUOO 171330Z 06002MPS CAVOK 16/01 Q1015 R12/010070 NOSIG RMK QFE748

VFR

17°C / 1°C

[Daha fazla]
Rüzgar 70º variable 030º to 100º 4kt
Görünürlük >10km
Hava -
Bulutlar Clouds and Visibility OK
Basınç 1016
Değiştir No Significant change. Runway 12: Clear and dry, 1-10% contamination with <1mm, friction coefficient 0.70.
Ham UUOO 171300Z 07002MPS 030V100 CAVOK 17/01 Q1016 R12/010070 NOSIG RMK QFE748

VFR

17°C / 1°C

[Daha fazla]
Rüzgar 160º variable 120º to 210º 4kt
Görünürlük >10km
Hava -
Bulutlar Clouds and Visibility OK
Basınç 1016
Değiştir No Significant change. Runway 30: Clear and dry, 1-10% contamination with <1mm, friction coefficient 0.70.
Ham UUOO 171230Z 16002MPS 120V210 CAVOK 17/01 Q1016 R30/010070 NOSIG RMK QFE748

51.82°K 39.23°D (UUOO) için TAF

From till


From till Wind 60º 6kt. Visibility 10km or more. Light Showers Rain . Scattered Clouds 400ft. Broken Clouds 1600ft.

Ham: TAF UUOO 172300Z 1800/1809 06003MPS 9999 -SHRA SCT004 BKN016CB

51.82°K 39.23°D için şu anki uydu ve yağmur görüntüleri

Konum işaretleyici 51.82°K 39.23°D üzerine yerleştirilir. [Daha fazla]

Gerçek zamanlı uydu görüntüsü gündüz süresince görülür ışığı gece süresince kızılötesi ışınım ile birleştirir. Gece kızılötesi ışınım sıcaklık farklarını algılayabildiğinden dolayı görüntü karanlık değildir. Ancak düşük bulutları ve sisi yer sıcaklığından ayırmak zordur ve bu nedenle gece boyunca neredeyse görünmez olabilirler. Avrupa için Meteosat uydu görüntüleri gerçek zamanlı olarak her 5 dakikada bir güncellenir. GOES-16/GOES-17 (Kuzey ve Güney Amerika) ve Himawari (Asya) görüntüleri her 10 dakikada bir güncellenir.

Copyright 2021 EUMETSAT / meteoblue. / Copyright 2021 meteoblue

51.82°K 39.23°D için radar ve yağış nowcast

çiseleyen yağmur
Hafif
Orta
Ağır
Çok ağır
Selamlamak

Konum işaretleyicisi 51.82°K 39.23°D üzerine yerleştirilir. Bu animasyon son saat içerisindeki yağış radarını ve 1h tahminini gösterir. Radar için çiseleyen yağmur veya hafif kar yağışı görünmez olabilir. Yağış yoğunluğu açık maviden turuncuya değişen renk kodludur.